| time (UTC) | temp F | wind direction | speed MPH | gust MPH | rain 1hr in | rain 24hr in | rain mn in | humidity % | barometer mb |
| 20260901233006 | 58 | 319 | 0.0 | 6.0 | 0.00 | 0.05 | 0.00 | 86 | 1015.2 |
| 20260901231506 | 59 | 306 | 1.0 | 5.0 | 0.00 | 0.05 | 0.00 | 87 | 1015.2 |
| 20260901230004 | 59 | 231 | 1.0 | 5.0 | 0.00 | 0.05 | 0.00 | 88 | 1015.1 |
| 20260901224606 | 59 | 246 | 0.0 | 7.0 | 0.00 | 0.05 | 0.00 | 89 | 1014.9 |
| 20260901223057 | 59 | 236 | 1.0 | 5.0 | 0.00 | 0.05 | 0.00 | 90 | 1014.9 |
| 20260901221600 | 58 | 258 | 0.0 | 0.0 | 0.00 | 0.05 | 0.00 | 89 | 1014.8 |
| 20260901220052 | 59 | 259 | 0.0 | 4.0 | 0.00 | 0.05 | 0.00 | 89 | 1014.8 |
| 20260901214600 | 59 | 234 | 0.0 | 2.0 | 0.00 | 0.05 | 0.05 | 88 | 1014.7 |
| 20260901213055 | 59 | 248 | 0.0 | 3.0 | 0.00 | 0.05 | 0.05 | 88 | 1014.7 |
| 20260901211550 | 59 | 231 | 1.0 | 3.0 | 0.00 | 0.05 | 0.05 | 87 | 1014.5 |
| 20260901210147 | 59 | 246 | 1.0 | 5.0 | 0.00 | 0.05 | 0.05 | 87 | 1014.4 |
| 20260901204545 | 59 | 247 | 0.0 | 2.0 | 0.00 | 0.05 | 0.05 | 86 | 1014.4 |
| 20260901203013 | 60 | 249 | 1.0 | 5.0 | 0.00 | 0.05 | 0.05 | 85 | 1014.3 |
| 20260901201555 | 60 | 244 | 0.0 | 4.0 | 0.00 | 0.05 | 0.05 | 84 | 1014.3 |
| 20260901200037 | 60 | 246 | 0.0 | 3.0 | 0.00 | 0.05 | 0.05 | 84 | 1014.2 |
| 20260901194642 | 61 | 258 | 1.0 | 6.0 | 0.00 | 0.06 | 0.05 | 84 | 1014.1 |
| 20260901191639 | 62 | 224 | 1.0 | 5.0 | 0.00 | 0.06 | 0.05 | 83 | 1014.0 |
| 20260901190053 | 62 | 257 | 1.0 | 5.0 | 0.00 | 0.06 | 0.05 | 82 | 1013.9 |
| 20260901184502 | 63 | 246 | 1.0 | 5.0 | 0.00 | 0.06 | 0.05 | 80 | 1013.7 |
| 20260901181616 | 64 | 257 | 1.0 | 6.0 | 0.00 | 0.06 | 0.05 | 78 | 1013.4 |
| 20260901180056 | 64 | 230 | 1.0 | 8.0 | 0.00 | 0.06 | 0.05 | 77 | 1013.3 |
| 20260901174558 | 65 | 235 | 1.0 | 9.0 | 0.00 | 0.06 | 0.05 | 77 | 1013.2 |
| 20260901173151 | 66 | 221 | 2.0 | 5.0 | 0.00 | 0.06 | 0.05 | 76 | 1013.0 |
| 20260901171544 | 66 | 259 | 1.0 | 6.0 | 0.00 | 0.06 | 0.05 | 75 | 1012.9 |
| 20260901170146 | 66 | 215 | 2.0 | 8.0 | 0.00 | 0.06 | 0.05 | 74 | 1012.9 |
| 20260901164556 | 66 | 229 | 1.0 | 5.0 | 0.00 | 0.06 | 0.05 | 75 | 1012.8 |
| 20260901163006 | 67 | 232 | 2.0 | 6.0 | 0.00 | 0.06 | 0.05 | 74 | 1012.8 |
| 20260901161627 | 67 | 238 | 2.0 | 10.0 | 0.00 | 0.06 | 0.05 | 73 | 1012.6 |
| 20260901160050 | 67 | 226 | 3.0 | 8.0 | 0.00 | 0.06 | 0.05 | 74 | 1012.6 |
| 20260901154602 | 66 | 239 | 4.0 | 9.0 | 0.00 | 0.07 | 0.05 | 77 | 1012.6 |
| 20260901153139 | 66 | 246 | 4.0 | 11.0 | 0.00 | 0.07 | 0.05 | 77 | 1012.5 |
| 20260901151602 | 66 | 236 | 3.0 | 9.0 | 0.00 | 0.07 | 0.05 | 80 | 1012.4 |
| 20260901144543 | 66 | 244 | 4.0 | 9.0 | 0.00 | 0.08 | 0.05 | 78 | 1012.4 |
| 20260901143044 | 66 | 225 | 2.0 | 9.0 | 0.03 | 0.08 | 0.05 | 78 | 1012.3 |
| 20260901141637 | 67 | 239 | 5.0 | 12.0 | 0.03 | 0.08 | 0.05 | 78 | 1012.4 |
| 20260901134553 | 67 | 230 | 2.0 | 7.0 | 0.03 | 0.08 | 0.05 | 81 | 1012.2 |
| 20260901133042 | 70 | 211 | 3.0 | 10.0 | 0.00 | 0.05 | 0.02 | 71 | 1012.1 |
| 20260901131635 | 69 | 225 | 4.0 | 11.0 | 0.00 | 0.05 | 0.02 | 73 | 1012.0 |
| 20260901130059 | 67 | 229 | 2.0 | 9.0 | 0.00 | 0.05 | 0.02 | 77 | 1012.0 |
| 20260901124548 | 67 | 205 | 0.0 | 6.0 | 0.00 | 0.05 | 0.02 | 77 | 1011.9 |
| 20260901123003 | 66 | 214 | 3.0 | 5.0 | 0.00 | 0.05 | 0.02 | 75 | 1011.8 |
| 20260901121556 | 66 | 273 | 1.0 | 5.0 | 0.00 | 0.05 | 0.02 | 76 | 1011.9 |
| 20260901120055 | 69 | 257 | 3.0 | 8.0 | 0.00 | 0.05 | 0.02 | 70 | 1011.9 |
| 20260901114649 | 70 | 234 | 2.0 | 7.0 | 0.01 | 0.05 | 0.02 | 68 | 1011.7 |
| 20260901113052 | 70 | 214 | 2.0 | 8.0 | 0.01 | 0.05 | 0.02 | 64 | 1011.7 |
| 20260901111544 | 70 | 237 | 3.0 | 10.0 | 0.01 | 0.05 | 0.02 | 65 | 1011.7 |
| 20260901110015 | 71 | 324 | 3.0 | 11.0 | 0.01 | 0.05 | 0.02 | 67 | 1011.6 |
| 20260901103155 | 70 | 203 | 3.0 | 9.0 | 0.00 | 0.04 | 0.01 | 72 | 1011.6 |
| 20260901101548 | 69 | 221 | 7.0 | 14.0 | 0.00 | 0.04 | 0.01 | 73 | 1011.5 |
| 20260901100137 | 68 | 250 | 2.0 | 9.0 | 0.00 | 0.04 | 0.01 | 73 | 1011.5 |
| 20260901094544 | 68 | 238 | 6.0 | 10.0 | 0.00 | 0.12 | 0.01 | 74 | 1011.4 |
| 20260901093139 | 67 | 263 | 2.0 | 8.0 | 0.00 | 0.12 | 0.01 | 78 | 1011.3 |
| 20260901091554 | 65 | 231 | 6.0 | 10.0 | 0.00 | 0.12 | 0.01 | 79 | 1011.3 |
| 20260901090145 | 66 | 238 | 1.0 | 9.0 | 0.00 | 0.12 | 0.01 | 77 | 1011.2 |
| 20260901084609 | 67 | 219 | 4.0 | 10.0 | 0.00 | 0.12 | 0.01 | 77 | 1011.1 |
| 20260901083103 | 65 | 242 | 2.0 | 6.0 | 0.00 | 0.12 | 0.01 | 81 | 1011.0 |
| 20260901081554 | 65 | 284 | 1.0 | 7.0 | 0.00 | 0.12 | 0.01 | 80 | 1010.9 |
| 20260901080101 | 65 | 285 | 1.0 | 9.0 | 0.00 | 0.12 | 0.01 | 80 | 1010.6 |
| 20260901074548 | 64 | 269 | 2.0 | 8.0 | 0.00 | 0.13 | 0.01 | 84 | 1010.5 |
| 20260901073044 | 64 | 293 | 1.0 | 8.0 | 0.00 | 0.13 | 0.01 | 86 | 1010.3 |
| 20260901071540 | 62 | 300 | 2.0 | 6.0 | 0.00 | 0.13 | 0.01 | 88 | 1010.2 |
| 20260901070045 | 62 | 309 | 1.0 | 6.0 | 0.00 | 0.13 | 0.01 | 89 | 1010.1 |
| 20260901064537 | 62 | 269 | 1.0 | 8.0 | 0.00 | 0.14 | 0.01 | 91 | 1010.0 |
| 20260901063047 | 62 | 266 | 2.0 | 8.0 | 0.00 | 0.14 | 0.01 | 92 | 1009.9 |
| 20260901061530 | 61 | 271 | 0.0 | 5.0 | 0.00 | 0.14 | 0.01 | 93 | 1009.8 |
| 20260901060027 | 60 | 301 | 0.0 | 5.0 | 0.00 | 0.14 | 0.01 | 93 | 1009.6 |
| 20260901054526 | 60 | 237 | 1.0 | 6.0 | 0.00 | 0.14 | 0.01 | 93 | 1009.6 |
| 20260901053024 | 60 | 257 | 1.0 | 4.0 | 0.00 | 0.14 | 0.01 | 93 | 1009.4 |
| 20260901051522 | 60 | 238 | 1.0 | 5.0 | 0.00 | 0.14 | 0.01 | 93 | 1009.3 |
| 20260901050017 | 59 | 246 | 0.0 | 0.0 | 0.00 | 0.14 | 0.01 | 93 | 1009.2 |
| 20260901044514 | 58 | 246 | 0.0 | 0.0 | 0.00 | 0.14 | 0.01 | 93 | 1009.1 |
| 20260901043012 | 58 | 246 | 0.0 | 0.0 | 0.00 | 0.14 | 0.01 | 93 | 1009.0 |
| 20260901041509 | 58 | 246 | 0.0 | 0.0 | 0.00 | 0.14 | 0.01 | 92 | 1008.8 |
| 20260901040008 | 58 | 246 | 0.0 | 0.0 | 0.00 | 0.14 | 0.01 | 93 | 1008.7 |
| 20260901034518 | 58 | 234 | 0.0 | 0.0 | 0.01 | 0.14 | 0.01 | 93 | 1008.8 |
| 20260901033006 | 58 | 228 | 0.0 | 0.0 | 0.01 | 0.14 | 0.01 | 93 | 1008.7 |
| 20260901031508 | 57 | 228 | 0.0 | 0.0 | 0.01 | 0.14 | 0.01 | 93 | 1008.6 |
| 20260901030004 | 57 | 228 | 0.0 | 0.0 | 0.01 | 0.14 | 0.01 | 93 | 1008.6 |
| 20260901024503 | 57 | 228 | 0.0 | 0.0 | 0.00 | 0.13 | 0.00 | 92 | 1008.5 |
| 20260901023002 | 57 | 228 | 0.0 | 0.0 | 0.00 | 0.13 | 0.00 | 93 | 1008.5 |
| 20260901021501 | 57 | 227 | 0.0 | 0.0 | 0.00 | 0.13 | 0.00 | 92 | 1008.5 |
| 20260901020100 | 57 | 226 | 0.0 | 0.0 | 0.00 | 0.13 | 0.00 | 92 | 1008.4 |
| 20260901014559 | 58 | 226 | 0.0 | 0.0 | 0.00 | 0.13 | 0.00 | 92 | 1008.3 |
| 20260901013116 | 58 | 226 | 0.0 | 0.0 | 0.00 | 0.13 | 0.00 | 92 | 1008.3 |
| 20260901011556 | 57 | 226 | 0.0 | 0.0 | 0.00 | 0.13 | 0.00 | 92 | 1008.1 |
| 20260901010057 | 58 | 226 | 0.0 | 0.0 | 0.00 | 0.13 | 0.00 | 92 | 1008.1 |
| 20260901004552 | 58 | 226 | 0.0 | 0.0 | 0.00 | 0.13 | 0.00 | 92 | 1008.1 |
| 20260901003052 | 58 | 228 | 0.0 | 0.0 | 0.00 | 0.13 | 0.00 | 92 | 1008.1 |
| 20260901001553 | 58 | 237 | 0.0 | 0.0 | 0.00 | 0.13 | 0.00 | 92 | 1008.1 |
| 20260901000050 | 58 | 237 | 0.0 | 3.0 | 0.00 | 0.13 | 0.00 | 92 | 1008.1 |
| 20260831234553 | 58 | 246 | 0.0 | 0.0 | 0.00 | 0.13 | 0.00 | 91 | 1008.0 |